Year,Month,Day,Hour,Minute,Value (Times are PST for temperature in C)
2010,09,22,00,00,10.30
2010,09,22,00,01,10.30
2010,09,22,00,02,10.30
2010,09,22,00,03,10.30
2010,09,22,00,04,10.30
2010,09,22,00,05,10.40
2010,09,22,00,06,10.40
2010,09,22,00,07,10.40
2010,09,22,00,08,10.40
2010,09,22,00,09,10.40
2010,09,22,00,10,10.40
2010,09,22,00,11,10.40
2010,09,22,00,12,10.40
2010,09,22,00,13,10.40
2010,09,22,00,14,10.40
2010,09,22,00,15,10.40
2010,09,22,00,16,10.30
2010,09,22,00,17,10.30
2010,09,22,00,18,10.20
2010,09,22,00,19,10.20
2010,09,22,00,20,10.10
2010,09,22,00,21,10.10
2010,09,22,00,22,10.10
2010,09,22,00,23,10.10
2010,09,22,00,24,10.10
2010,09,22,00,25,10.30
2010,09,22,00,26,10.30
2010,09,22,00,27,10.40
2010,09,22,00,28,10.40
2010,09,22,00,29,10.40
2010,09,22,00,30,10.40
2010,09,22,00,31,10.40
2010,09,22,00,32,10.30
2010,09,22,00,33,10.30
2010,09,22,00,34,10.30
2010,09,22,00,35,10.20
2010,09,22,00,36,10.20
2010,09,22,00,37,10.20
2010,09,22,00,38,10.10
2010,09,22,00,39,10.10
2010,09,22,00,40,10.10
2010,09,22,00,41,10.10
2010,09,22,00,42,10.00
2010,09,22,00,43,9.90
2010,09,22,00,44,9.90
2010,09,22,00,45,9.90
2010,09,22,00,46,9.90
2010,09,22,00,47,9.90
2010,09,22,00,48,9.80
2010,09,22,00,49,9.80
2010,09,22,00,50,9.70
2010,09,22,00,51,9.70
2010,09,22,00,52,9.70
2010,09,22,00,53,9.70
2010,09,22,00,54,9.70
2010,09,22,00,55,9.60
2010,09,22,00,56,9.60
2010,09,22,00,57,9.60
2010,09,22,00,58,9.50
2010,09,22,00,59,9.50
2010,09,22,01,00,9.50
2010,09,22,01,01,9.40
2010,09,22,01,02,9.40
2010,09,22,01,03,9.40
2010,09,22,01,04,9.30
2010,09,22,01,05,9.30
2010,09,22,01,06,9.30
2010,09,22,01,07,9.30
2010,09,22,01,08,9.20
2010,09,22,01,09,9.20
2010,09,22,01,10,9.20
2010,09,22,01,11,9.20
2010,09,22,01,12,9.20
2010,09,22,01,13,9.20
2010,09,22,01,14,9.10
2010,09,22,01,15,9.10
2010,09,22,01,16,9.10
2010,09,22,01,17,9.10
2010,09,22,01,18,9.10
2010,09,22,01,19,9.10
2010,09,22,01,20,9.10
2010,09,22,01,21,9.10
2010,09,22,01,22,9.10
2010,09,22,01,23,9.10
2010,09,22,01,24,9.10
2010,09,22,01,25,9.10
2010,09,22,01,26,9.10
2010,09,22,01,27,9.00
2010,09,22,01,28,9.00
2010,09,22,01,29,9.00
2010,09,22,01,30,9.00
2010,09,22,01,31,9.00
2010,09,22,01,32,9.00
2010,09,22,01,33,9.00
2010,09,22,01,34,8.90
2010,09,22,01,35,8.90
2010,09,22,01,36,8.90
2010,09,22,01,37,8.90
2010,09,22,01,38,8.90
2010,09,22,01,39,8.80
2010,09,22,01,40,8.80
2010,09,22,01,41,8.80
2010,09,22,01,42,8.80
2010,09,22,01,43,8.80
2010,09,22,01,44,8.70
2010,09,22,01,45,8.70
2010,09,22,01,46,8.70
2010,09,22,01,47,8.70
2010,09,22,01,48,8.70
2010,09,22,01,49,8.70
2010,09,22,01,50,8.70
2010,09,22,01,51,8.70
2010,09,22,01,52,8.70
2010,09,22,01,53,8.70
2010,09,22,01,54,8.70
2010,09,22,01,55,8.70
2010,09,22,01,56,8.70
2010,09,22,01,57,8.70
2010,09,22,01,58,8.70
2010,09,22,01,59,8.70
2010,09,22,02,00,8.70
2010,09,22,02,01,8.70
2010,09,22,02,02,8.70
2010,09,22,02,03,8.70
2010,09,22,02,04,8.70
2010,09,22,02,05,8.60
2010,09,22,02,06,8.60
2010,09,22,02,07,8.60
2010,09,22,02,08,8.60
2010,09,22,02,09,8.60
2010,09,22,02,10,8.60
2010,09,22,02,11,8.50
2010,09,22,02,12,8.50
2010,09,22,02,13,8.50
2010,09,22,02,14,8.50
2010,09,22,02,15,8.50
2010,09,22,02,16,8.50
2010,09,22,02,17,8.50
2010,09,22,02,18,8.50
2010,09,22,02,19,8.50
2010,09,22,02,20,8.60
2010,09,22,02,21,8.60
2010,09,22,02,22,8.60
2010,09,22,02,23,8.60
2010,09,22,02,24,8.60
2010,09,22,02,25,8.60
2010,09,22,02,26,8.60
2010,09,22,02,27,8.60
2010,09,22,02,28,8.60
2010,09,22,02,29,8.50
2010,09,22,02,30,8.50
2010,09,22,02,31,8.50
2010,09,22,02,32,8.40
2010,09,22,02,33,8.40
2010,09,22,02,34,8.40
2010,09,22,02,35,8.30
2010,09,22,02,36,8.30
2010,09,22,02,37,8.30
2010,09,22,02,38,8.30
2010,09,22,02,39,8.20
2010,09,22,02,40,8.20
2010,09,22,02,41,8.20
2010,09,22,02,42,8.20
2010,09,22,02,43,8.20
2010,09,22,02,44,8.20
2010,09,22,02,45,8.20
2010,09,22,02,46,8.20
2010,09,22,02,47,8.20
2010,09,22,02,48,8.20
2010,09,22,02,49,8.20
2010,09,22,02,50,8.20
2010,09,22,02,51,8.20
2010,09,22,02,52,8.20
2010,09,22,02,53,8.10
2010,09,22,02,54,8.10
2010,09,22,02,55,8.10
2010,09,22,02,56,8.10
2010,09,22,02,57,8.00
2010,09,22,02,58,8.00
2010,09,22,02,59,8.00
2010,09,22,03,00,8.00
2010,09,22,03,01,8.00
2010,09,22,03,02,8.10
2010,09,22,03,03,8.10
2010,09,22,03,04,8.10
2010,09,22,03,05,8.10
2010,09,22,03,06,8.10
2010,09,22,03,07,8.10
2010,09,22,03,08,8.10
2010,09,22,03,09,8.20
2010,09,22,03,10,8.20
2010,09,22,03,11,8.20
2010,09,22,03,12,8.20
2010,09,22,03,13,8.20
2010,09,22,03,14,8.20
2010,09,22,03,15,8.20
2010,09,22,03,16,8.20
2010,09,22,03,17,8.20
2010,09,22,03,18,8.20
2010,09,22,03,19,8.20
2010,09,22,03,20,8.20
2010,09,22,03,21,8.20
2010,09,22,03,22,8.20
2010,09,22,03,23,8.20
2010,09,22,03,24,8.20
2010,09,22,03,25,8.20
2010,09,22,03,26,8.20
2010,09,22,03,27,8.20
2010,09,22,03,28,8.30
2010,09,22,03,29,8.30
2010,09,22,03,30,8.40
2010,09,22,03,31,8.40
2010,09,22,03,32,8.40
2010,09,22,03,33,8.50
2010,09,22,03,34,8.50
2010,09,22,03,35,8.50
2010,09,22,03,36,8.60
2010,09,22,03,37,8.70
2010,09,22,03,38,8.70
2010,09,22,03,39,8.70
2010,09,22,03,40,8.70
2010,09,22,03,41,8.80
2010,09,22,03,42,8.80
2010,09,22,03,43,8.80
2010,09,22,03,44,8.90
2010,09,22,03,45,9.00
2010,09,22,03,46,9.00
2010,09,22,03,47,9.00
2010,09,22,03,48,9.10
2010,09,22,03,49,9.10
2010,09,22,03,50,9.10
2010,09,22,03,51,9.20
2010,09,22,03,52,9.20
2010,09,22,03,53,9.20
2010,09,22,03,54,9.30
2010,09,22,03,55,9.30
2010,09,22,03,56,9.40
2010,09,22,03,57,9.40
2010,09,22,03,58,9.40
2010,09,22,03,59,9.50
2010,09,22,04,00,9.50
2010,09,22,04,01,9.60
2010,09,22,04,02,9.60
2010,09,22,04,03,9.60
2010,09,22,04,04,9.70
2010,09,22,04,05,9.70
2010,09,22,04,06,9.70
2010,09,22,04,07,9.70
2010,09,22,04,08,9.70
2010,09,22,04,09,9.70
2010,09,22,04,10,9.70
2010,09,22,04,11,9.70
2010,09,22,04,12,9.70
2010,09,22,04,13,9.70
2010,09,22,04,14,9.70
2010,09,22,04,15,9.70
2010,09,22,04,16,9.80
2010,09,22,04,17,9.80
2010,09,22,04,18,9.90
2010,09,22,04,19,9.90
2010,09,22,04,20,9.90
2010,09,22,04,21,9.90
2010,09,22,04,22,9.90
2010,09,22,04,23,10.00
2010,09,22,04,24,10.10
2010,09,22,04,25,10.10
2010,09,22,04,26,10.10
2010,09,22,04,27,10.10
2010,09,22,04,28,10.20
2010,09,22,04,29,10.20
2010,09,22,04,30,10.20
2010,09,22,04,31,10.20
2010,09,22,04,32,10.20
2010,09,22,04,33,10.30
2010,09,22,04,34,10.30
2010,09,22,04,35,10.30
2010,09,22,04,36,10.40
2010,09,22,04,37,10.40
2010,09,22,04,38,10.40
2010,09,22,04,39,10.40
2010,09,22,04,40,10.40
2010,09,22,04,41,10.40
2010,09,22,04,42,10.40
2010,09,22,04,43,10.30
2010,09,22,04,44,10.30
2010,09,22,04,45,10.30
2010,09,22,04,46,10.30
2010,09,22,04,47,10.30
2010,09,22,04,48,10.30
2010,09,22,04,49,10.30
2010,09,22,04,50,10.30
2010,09,22,04,51,10.40
2010,09,22,04,52,10.40
2010,09,22,04,53,10.40
2010,09,22,04,54,10.40
2010,09,22,04,55,10.40
2010,09,22,04,56,10.40
2010,09,22,04,57,10.40
2010,09,22,04,58,10.40
2010,09,22,04,59,10.40
2010,09,22,05,00,10.40
2010,09,22,05,01,10.40
2010,09,22,05,02,10.40
2010,09,22,05,03,10.40
2010,09,22,05,04,10.40
2010,09,22,05,05,10.50
2010,09,22,05,06,10.60
2010,09,22,05,07,10.60
2010,09,22,05,08,10.60
2010,09,22,05,09,10.60
2010,09,22,05,10,10.60
2010,09,22,05,11,10.60
2010,09,22,05,12,10.60
2010,09,22,05,13,10.60
2010,09,22,05,14,10.60
2010,09,22,05,15,10.60
2010,09,22,05,16,10.60
2010,09,22,05,17,10.60
2010,09,22,05,18,10.60
2010,09,22,05,19,10.60
2010,09,22,05,20,10.60
2010,09,22,05,21,10.60
2010,09,22,05,22,10.60
2010,09,22,05,23,10.60
2010,09,22,05,24,10.60
2010,09,22,05,25,10.60
2010,09,22,05,26,10.60
2010,09,22,05,27,10.60
2010,09,22,05,28,10.60
2010,09,22,05,29,10.60
2010,09,22,05,30,10.60
2010,09,22,05,31,10.60
2010,09,22,05,32,10.60
2010,09,22,05,33,10.60
2010,09,22,05,34,10.60
2010,09,22,05,35,10.70
2010,09,22,05,36,10.90
2010,09,22,05,37,11.10
2010,09,22,05,38,11.20
2010,09,22,05,39,11.40
2010,09,22,05,40,11.50
2010,09,22,05,41,11.60
2010,09,22,05,42,11.70
2010,09,22,05,43,11.80
2010,09,22,05,44,11.90
2010,09,22,05,45,11.90
2010,09,22,05,46,12.00
2010,09,22,05,47,12.10
2010,09,22,05,48,12.10
2010,09,22,05,49,12.20
2010,09,22,05,50,12.20
2010,09,22,05,51,12.30
2010,09,22,05,52,12.30
2010,09,22,05,53,12.30
2010,09,22,05,54,12.30
2010,09,22,05,55,12.40
2010,09,22,05,56,12.40
2010,09,22,05,57,12.40
2010,09,22,05,58,12.40
2010,09,22,05,59,12.50
2010,09,22,06,00,12.50
2010,09,22,06,01,12.60
2010,09,22,06,02,12.60
2010,09,22,06,03,12.60
2010,09,22,06,04,12.60
2010,09,22,06,05,12.60
2010,09,22,06,06,12.70
2010,09,22,06,07,12.70
2010,09,22,06,08,12.80
2010,09,22,06,09,12.80
2010,09,22,06,10,12.90
2010,09,22,06,11,13.00
2010,09,22,06,12,13.00
2010,09,22,06,13,13.00
2010,09,22,06,14,13.00
2010,09,22,06,15,13.00
2010,09,22,06,16,13.00
2010,09,22,06,17,13.00
2010,09,22,06,18,13.00
2010,09,22,06,19,13.00
2010,09,22,06,20,13.00
2010,09,22,06,21,12.90
2010,09,22,06,22,13.00
2010,09,22,06,23,13.00
2010,09,22,06,24,13.00
2010,09,22,06,25,13.00
2010,09,22,06,26,12.90
2010,09,22,06,27,12.90
2010,09,22,06,28,12.90
2010,09,22,06,29,12.90
2010,09,22,06,30,12.80
2010,09,22,06,31,12.80
2010,09,22,06,32,12.80
2010,09,22,06,33,12.80
2010,09,22,06,34,12.80
2010,09,22,06,35,12.70
2010,09,22,06,36,12.70
2010,09,22,06,37,12.70
2010,09,22,06,38,12.70
2010,09,22,06,39,12.70
2010,09,22,06,40,12.60
2010,09,22,06,41,12.60
2010,09,22,06,42,12.60
2010,09,22,06,43,12.60
2010,09,22,06,44,12.60
2010,09,22,06,45,12.60
2010,09,22,06,46,12.60
2010,09,22,06,47,12.70
2010,09,22,06,48,12.60
2010,09,22,06,49,12.60
2010,09,22,06,50,12.50
2010,09,22,06,51,12.50
2010,09,22,06,52,12.50
2010,09,22,06,53,12.40
2010,09,22,06,54,12.40
2010,09,22,06,55,12.40
2010,09,22,06,56,12.40
2010,09,22,06,57,12.30
2010,09,22,06,58,12.30
2010,09,22,06,59,12.30
2010,09,22,07,00,12.30
2010,09,22,07,01,12.30
2010,09,22,07,02,12.30
2010,09,22,07,03,12.30
2010,09,22,07,04,12.30
2010,09,22,07,05,12.30
2010,09,22,07,06,12.40
2010,09,22,07,07,12.50
2010,09,22,07,08,12.50
2010,09,22,07,09,12.50
2010,09,22,07,10,12.50
2010,09,22,07,11,12.50
2010,09,22,07,12,12.50
2010,09,22,07,13,12.50
2010,09,22,07,14,12.50
2010,09,22,07,15,12.50
2010,09,22,07,16,12.50
2010,09,22,07,17,12.50
2010,09,22,07,18,12.50
2010,09,22,07,19,12.60
2010,09,22,07,20,12.60
2010,09,22,07,21,12.50
2010,09,22,07,22,12.50
2010,09,22,07,23,12.50
2010,09,22,07,24,12.50
2010,09,22,07,25,12.50
2010,09,22,07,26,12.40
2010,09,22,07,27,12.40
2010,09,22,07,28,12.40
2010,09,22,07,29,12.40
2010,09,22,07,30,12.40
2010,09,22,07,31,12.40
2010,09,22,07,32,12.40
2010,09,22,07,33,12.50
2010,09,22,07,34,12.50
2010,09,22,07,35,12.50
2010,09,22,07,36,12.60
2010,09,22,07,37,12.60
2010,09,22,07,38,12.60
2010,09,22,07,39,12.50
2010,09,22,07,40,12.50
2010,09,22,07,41,12.60
2010,09,22,07,42,12.60
2010,09,22,07,43,12.60
2010,09,22,07,44,12.50
2010,09,22,07,45,12.60
2010,09,22,07,46,12.60
2010,09,22,07,47,12.60
2010,09,22,07,48,12.70
2010,09,22,07,49,12.70
2010,09,22,07,50,12.70
2010,09,22,07,51,12.70
2010,09,22,07,52,12.60
2010,09,22,07,53,12.60
2010,09,22,07,54,12.60
2010,09,22,07,55,12.50
2010,09,22,07,56,12.50
2010,09,22,07,57,12.60
2010,09,22,07,58,12.60
2010,09,22,07,59,12.60
2010,09,22,08,00,12.70
2010,09,22,08,01,12.70
2010,09,22,08,02,12.80
2010,09,22,08,03,12.80
2010,09,22,08,04,12.80
2010,09,22,08,05,12.80
2010,09,22,08,06,12.80
2010,09,22,08,07,12.90
2010,09,22,08,08,12.90
2010,09,22,08,09,12.90
2010,09,22,08,10,12.90
2010,09,22,08,11,12.90
2010,09,22,08,12,12.90
2010,09,22,08,13,12.90
2010,09,22,08,14,12.90
2010,09,22,08,15,12.90
2010,09,22,08,16,12.90
2010,09,22,08,17,12.90
2010,09,22,08,18,13.00
2010,09,22,08,19,13.00
2010,09,22,08,20,13.00
2010,09,22,08,21,13.10
2010,09,22,08,22,13.10
2010,09,22,08,23,13.10
2010,09,22,08,24,13.20
2010,09,22,08,25,13.30
2010,09,22,08,26,13.30
2010,09,22,08,27,13.30
2010,09,22,08,28,13.30
2010,09,22,08,29,13.30
2010,09,22,08,30,13.30
2010,09,22,08,31,13.30
2010,09,22,08,32,13.30
2010,09,22,08,33,13.30
2010,09,22,08,34,13.40
2010,09,22,08,35,13.40
2010,09,22,08,36,13.50
2010,09,22,08,37,13.50
2010,09,22,08,38,13.50
2010,09,22,08,39,13.50
2010,09,22,08,40,13.60
2010,09,22,08,41,13.60
2010,09,22,08,42,13.60
2010,09,22,08,43,13.60
2010,09,22,08,44,13.60
2010,09,22,08,45,13.60
2010,09,22,08,46,13.70
2010,09,22,08,47,13.70
2010,09,22,08,48,13.70
2010,09,22,08,49,13.70
2010,09,22,08,50,13.70
2010,09,22,08,51,13.70
2010,09,22,08,52,13.70
2010,09,22,08,53,13.70
2010,09,22,08,54,13.70
2010,09,22,08,55,13.70
2010,09,22,08,56,13.80
2010,09,22,08,57,13.90
2010,09,22,08,58,13.90
2010,09,22,08,59,13.90
2010,09,22,09,00,13.90
2010,09,22,09,01,13.90
2010,09,22,09,02,13.80
2010,09,22,09,03,13.80
2010,09,22,09,04,13.80
2010,09,22,09,05,13.80
2010,09,22,09,06,13.80
2010,09,22,09,07,13.80
2010,09,22,09,08,13.90
2010,09,22,09,09,13.90
2010,09,22,09,10,13.90
2010,09,22,09,11,13.90
2010,09,22,09,12,13.90
2010,09,22,09,13,13.90
2010,09,22,09,14,13.90
2010,09,22,09,15,13.90
2010,09,22,09,16,13.80
2010,09,22,09,17,13.80
2010,09,22,09,18,13.80
2010,09,22,09,19,13.80
2010,09,22,09,20,13.90
2010,09,22,09,21,13.90
2010,09,22,09,22,13.90
2010,09,22,09,23,13.90
2010,09,22,09,24,13.90
2010,09,22,09,25,13.90
2010,09,22,09,26,14.00
2010,09,22,09,27,14.10
2010,09,22,09,28,14.20
2010,09,22,09,29,14.20
2010,09,22,09,30,14.30
2010,09,22,09,31,14.30
2010,09,22,09,32,14.40
2010,09,22,09,33,14.40
2010,09,22,09,34,14.50
2010,09,22,09,35,14.50
2010,09,22,09,36,14.40
2010,09,22,09,37,14.30
2010,09,22,09,38,14.40
2010,09,22,09,39,14.40
2010,09,22,09,40,14.30
2010,09,22,09,41,14.40
2010,09,22,09,42,14.50
2010,09,22,09,43,14.50
2010,09,22,09,44,14.50
2010,09,22,09,45,14.50
2010,09,22,09,46,14.50
2010,09,22,09,47,14.50
2010,09,22,09,48,14.50
2010,09,22,09,49,14.60
2010,09,22,09,50,14.60
2010,09,22,09,51,14.60
2010,09,22,09,52,14.60
2010,09,22,09,53,14.60
2010,09,22,09,54,14.60
2010,09,22,09,55,14.60
2010,09,22,09,56,14.60
2010,09,22,09,57,14.60
2010,09,22,09,58,14.60
2010,09,22,09,59,14.60
